,,Stat6,,Stat2,,Stat8,,Stat9,,Stat10,,Wind1,,Wind1,
time,status,PA1M_AVG,status,PR1M_SUM,status,RH1M_AVG,status,SR1M_AVG,status,TA1M_AVG,status,W1dAve1m,status,W1sAve1m,
2006-03-20, 00:00:00,VALID,916.843,VALID,0,VALID,100,VALID,0.0339617,VALID,19.4879,VALID,356,VALID,0.264137,
2006-03-20, 00:01:00,VALID,916.848,VALID,0,VALID,100,VALID,0.0169808,VALID,20.0177,VALID,356,VALID,0.654204,
2006-03-20, 00:02:00,VALID,916.826,VALID,0,VALID,100,VALID,-0.101885,VALID,19.355,VALID,356,VALID,0.631747,
2006-03-20, 00:03:00,VALID,916.814,VALID,0,VALID,100,VALID,-0.101885,VALID,19.1591,VALID,356,VALID,0.572731,
2006-03-20, 00:04:00,VALID,916.806,VALID,0,VALID,100,VALID,-0.0679233,VALID,19.652,VALID,356,VALID,0.218006,
2006-03-20, 00:05:00,VALID,916.792,VALID,0,VALID,100,VALID,-0.0169808,VALID,19.4311,VALID,356,VALID,0.229288,
2006-03-20, 00:06:00,VALID,916.792,VALID,0,VALID,100,VALID,-0.0339617,VALID,19.1613,VALID,356,VALID,0,
2006-03-20, 00:07:00,VALID,916.771,VALID,0,VALID,100,VALID,0.0339617,VALID,18.8353,VALID,356,VALID,0.0101902,
2006-03-20, 00:08:00,VALID,916.768,VALID,0,VALID,100,VALID,0.0169808,VALID,19.5283,VALID,356,VALID,0,
2006-03-20, 00:09:00,VALID,916.759,VALID,0,VALID,100,VALID,0.0509425,VALID,18.9761,VALID,356,VALID,0,
2006-03-20, 00:10:00,VALID,916.745,VALID,0,VALID,100,VALID,0.0169808,VALID,19.4515,VALID,356,VALID,0,
2006-03-20, 00:11:00,VALID,916.747,VALID,0,VALID,100,VALID,0.0509425,VALID,19.1028,VALID,356,VALID,0,
2006-03-20, 00:12:00,VALID,916.732,VALID,0,VALID,100,VALID,0.0339617,VALID,19.3817,VALID,356,VALID,0,
2006-03-20, 00:13:00,VALID,916.724,VALID,0,VALID,100,VALID,0.0679233,VALID,18.3086,VALID,356,VALID,0,
2006-03-20, 00:14:01,VALID,916.703,VALID,0,VALID,100,VALID,0.0509425,VALID,19.4363,VALID,356,VALID,0,
2006-03-20, 00:15:00,VALID,916.683,VALID,0,VALID,100,VALID,0.0169808,VALID,19.6194,VALID,356,VALID,0,
2006-03-20, 00:16:00,VALID,916.663,VALID,0,VALID,100,VALID,-0.0849042,VALID,19.0698,VALID,356,VALID,0,
2006-03-20, 00:17:00,VALID,916.651,VALID,0,VALID,100,VALID,0,VALID,19.8628,VALID,356,VALID,0,
2006-03-20, 00:18:00,VALID,916.618,VALID,0,VALID,100,VALID,0,VALID,19.3151,VALID,356,VALID,0,
2006-03-20, 00:19:00,VALID,916.606,VALID,0,VALID,100,VALID,-0.0849042,VALID,18.6044,VALID,356,VALID,0,
2006-03-20, 00:20:00,VALID,916.602,VALID,0,VALID,100,VALID,0.0169808,VALID,19.572,VALID,356,VALID,0,
2006-03-20, 00:21:01,VALID,916.594,VALID,0,VALID,100,VALID,0.0169808,VALID,19.4158,VALID,356,VALID,0,
2006-03-20, 00:22:00,VALID,916.593,VALID,0,VALID,100,VALID,0,VALID,20.1422,VALID,356,VALID,0,
2006-03-20, 00:23:00,VALID,916.594,VALID,0,VALID,100,VALID,0,VALID,19.2053,VALID,356,VALID,0,
2006-03-20, 00:24:00,VALID,916.59,VALID,0,VALID,100,VALID,0,VALID,18.5208,VALID,356,VALID,0,
2006-03-20, 00:25:01,VALID,916.579,VALID,0,VALID,100,VALID,0,VALID,19.497,VALID,356,VALID,0,
2006-03-20, 00:26:00,VALID,916.57,VALID,0,VALID,100,VALID,0,VALID,19.7879,VALID,356,VALID,0.00744048,
2006-03-20, 00:27:00,VALID,916.55,VALID,0,VALID,100,VALID,0.0339617,VALID,19.1356,VALID,356,VALID,0,
2006-03-20, 00:28:00,VALID,916.537,VALID,0,VALID,100,VALID,0,VALID,19.0106,VALID,356,VALID,0,
2006-03-20, 00:29:00,VALID,916.541,VALID,0,VALID,100,VALID,0,VALID,19.5221,VALID,356,VALID,0,
2006-03-20, 00:30:00,VALID,916.534,VALID,0,VALID,100,VALID,0,VALID,19.8195,VALID,356,VALID,0,
2006-03-20, 00:31:00,VALID,916.517,VALID,0,VALID,100,VALID,-0.0169808,VALID,19.0718,VALID,356,VALID,0,
2006-03-20, 00:32:01,VALID,916.507,VALID,0,VALID,100,VALID,-0.0169808,VALID,19.0612,VALID,356,VALID,0,
2006-03-20, 00:33:00,VALID,916.506,VALID,0,VALID,100,VALID,-0.0509425,VALID,19.6601,VALID,356,VALID,0,
2006-03-20, 00:34:00,VALID,916.497,VALID,0,VALID,100,VALID,0.0339617,VALID,19.2956,VALID,356,VALID,0,
2006-03-20, 00:35:00,VALID,916.483,VALID,0,VALID,100,VALID,-0.0849042,VALID,20.0127,VALID,356,VALID,0,
2006-03-20, 00:36:00,VALID,916.475,VALID,0,VALID,100,VALID,0,VALID,19.5524,VALID,356,VALID,0,
2006-03-20, 00:37:00,VALID,916.449,VALID,0,VALID,100,VALID,0.0169808,VALID,18.8623,VALID,356,VALID,0,
2006-03-20, 00:38:00,VALID,916.447,VALID,0,VALID,100,VALID,0,VALID,19.0061,VALID,356,VALID,0,
2006-03-20, 00:39:00,VALID,916.439,VALID,0,VALID,100,VALID,0,VALID,19.3992,VALID,356,VALID,0,
2006-03-20, 00:40:00,VALID,916.428,VALID,0,VALID,100,VALID,0.0169808,VALID,19.2274,VALID,356,VALID,0,
2006-03-20, 00:41:01,VALID,916.426,VALID,0,VALID,100,VALID,0.0509425,VALID,18.6157,VALID,356,VALID,0,
2006-03-20, 00:42:00,VALID,916.427,VALID,0,VALID,100,VALID,0.0339617,VALID,19.4246,VALID,356,VALID,0,
2006-03-20, 00:43:00,VALID,916.411,VALID,0,VALID,100,VALID,0.0679233,VALID,19.2061,VALID,356,VALID,0,
2006-03-20, 00:44:00,VALID,916.399,VALID,0,VALID,100,VALID,0.0339617,VALID,19.4198,VALID,356,VALID,0,
2006-03-20, 00:45:00,VALID,916.392,VALID,0,VALID,100,VALID,-0.0679233,VALID,19.7302,VALID,356,VALID,0,
2006-03-20, 00:46:01,VALID,916.382,VALID,0,VALID,100,VALID,0,VALID,19.0218,VALID,356,VALID,0,
2006-03-20, 00:47:01,VALID,916.366,VALID,0,VALID,100,VALID,-0.0509425,VALID,19.5711,VALID,356,VALID,0,
2006-03-20, 00:48:00,VALID,916.364,VALID,0,VALID,100,VALID,0.0509425,VALID,19.0936,VALID,356,VALID,0,
2006-03-20, 00:49:00,VALID,916.356,VALID,0,VALID,100,VALID,0.0509425,VALID,19.447,VALID,356,VALID,0,
2006-03-20, 00:50:01,VALID,916.352,VALID,0,VALID,100,VALID,-0.0679233,VALID,19.0227,VALID,356,VALID,0,
2006-03-20, 00:51:00,VALID,916.344,VALID,0,VALID,100,VALID,-0.0679233,VALID,19.2628,VALID,356,VALID,0,
2006-03-20, 00:52:00,VALID,916.347,VALID,0,VALID,100,VALID,-0.0849042,VALID,19.1688,VALID,356,VALID,0,
2006-03-20, 00:53:00,VALID,916.353,VALID,0,VALID,100,VALID,-0.118866,VALID,19.5669,VALID,356,VALID,0.101215,
2006-03-20, 00:54:00,VALID,916.35,VALID,0,VALID,100,VALID,0.0339617,VALID,19.2586,VALID,325,VALID,0.303516,
2006-03-20, 00:55:00,VALID,916.348,VALID,0,VALID,100,VALID,0.0339617,VALID,19.6753,VALID,300,VALID,0.265625,
2006-03-20, 00:56:00,VALID,916.334,VALID,0,VALID,100,VALID,0.0339617,VALID,19.1727,VALID,300,VALID,0.112995,
2006-03-20, 00:57:01,VALID,916.326,VALID,0,VALID,100,VALID,0.0339617,VALID,19.6477,VALID,300,VALID,0,
2006-03-20, 00:58:00,VALID,916.319,VALID,0,VALID,100,VALID,0.0169808,VALID,19.1508,VALID,300,VALID,0.122514,
2006-03-20, 00:59:00,VALID,916.302,VALID,0,VALID,100,VALID,0,VALID,20.22,VALID,300,VALID,0.128018,
2006-03-20, 01:00:00,VALID,916.291,VALID,0,VALID,100,VALID,0.0509425,VALID,19.1647,VALID,300,VALID,0.0709135,
2006-03-20, 01:01:00,VALID,916.274,VALID,0,VALID,100,VALID,0.0169808,VALID,18.8238,VALID,300,VALID,0.0490057,
2006-03-20, 01:02:00,VALID,916.249,VALID,0,VALID,100,VALID,0,VALID,19.5426,VALID,299,VALID,0.192587,
2006-03-20, 01:03:01,VALID,916.237,VALID,0,VALID,100,VALID,-0.0679233,VALID,19.0859,VALID,355,VALID,0.34654,
2006-03-20, 01:04:00,VALID,916.23,VALID,0,VALID,100,VALID,-0.0339617,VALID,19.3189,VALID,355,VALID,0.0398065,
2006-03-20, 01:05:00,VALID,916.205,VALID,0,VALID,100,VALID,0,VALID,19.4688,VALID,355,VALID,0.13157,
2006-03-20, 01:06:01,VALID,916.208,VALID,0,VALID,100,VALID,0,VALID,18.2072,VALID,355,VALID,0.213477,
2006-03-20, 01:07:00,VALID,916.189,VALID,0,VALID,100,VALID,0,VALID,19.229,VALID,355,VALID,0.16282,
2006-03-20, 01:08:00,VALID,916.162,VALID,0,VALID,100,VALID,0,VALID,19.0953,VALID,355,VALID,0.336133,
2006-03-20, 01:09:00,VALID,916.148,VALID,0,VALID,100,VALID,0.0169808,VALID,19.2832,VALID,355,VALID,0.299079,
2006-03-20, 01:10:01,VALID,916.14,VALID,0,VALID,100,VALID,0.0339617,VALID,19.9098,VALID,355,VALID,0.209201,
2006-03-20, 01:11:00,VALID,916.136,VALID,0,VALID,99.9708,VALID,0.0169808,VALID,19.0044,VALID,355,VALID,0.00363372,
2006-03-20, 01:12:00,VALID,916.133,VALID,0,VALID,99.8998,VALID,0.0169808,VALID,19.0572,VALID,355,VALID,0,
2006-03-20, 01:13:00,VALID,916.138,VALID,0,VALID,99.7383,VALID,0.0169808,VALID,19.4644,VALID,355,VALID,0,
2006-03-20, 01:14:00,VALID,916.133,VALID,0,VALID,99.6417,VALID,0.0509425,VALID,18.9948,VALID,355,VALID,0,
2006-03-20, 01:15:00,VALID,916.122,VALID,0,VALID,99.6391,VALID,0,VALID,19.24,VALID,355,VALID,0,
2006-03-20, 01:16:00,VALID,916.105,VALID,0,VALID,99.6684,VALID,-0.0849042,VALID,18.8193,VALID,355,VALID,0,
2006-03-20, 01:17:00,VALID,916.092,VALID,0,VALID,99.6951,VALID,-0.0849042,VALID,19.661,VALID,355,VALID,0,
2006-03-20, 01:18:01,VALID,916.093,VALID,0,VALID,99.6963,VALID,-0.0509425,VALID,19.4402,VALID,355,VALID,0,
2006-03-20, 01:19:01,VALID,916.075,VALID,0,VALID,99.7002,VALID,-0.0679233,VALID,19.8837,VALID,355,VALID,0,
2006-03-20, 01:20:00,VALID,916.068,VALID,0,VALID,99.7497,VALID,0,VALID,19.6655,VALID,355,VALID,0,
2006-03-20, 01:21:00,VALID,916.064,VALID,0,VALID,99.924,VALID,-0.0509425,VALID,18.9148,VALID,355,VALID,0,
2006-03-20, 01:22:00,VALID,916.074,VALID,0,VALID,100,VALID,0.0169808,VALID,19.799,VALID,355,VALID,0,
2006-03-20, 01:23:00,VALID,916.075,VALID,0,VALID,100,VALID,0.0339617,VALID,18.7735,VALID,355,VALID,0,
2006-03-20, 01:24:00,VALID,916.052,VALID,0,VALID,100,VALID,0,VALID,20.1914,VALID,355,VALID,0.117543,
2006-03-20, 01:25:00,VALID,916.029,VALID,0,VALID,100,VALID,0,VALID,20.0709,VALID,355,VALID,0.0440848,
2006-03-20, 01:26:00,VALID,915.996,VALID,0,VALID,100,VALID,0,VALID,19.2737,VALID,355,VALID,0.0217014,
2006-03-20, 01:27:00,VALID,915.971,VALID,0,VALID,100,VALID,0,VALID,19.8967,VALID,355,VALID,0.00639205,
2006-03-20, 01:28:00,VALID,915.946,VALID,0,VALID,100,VALID,-0.0169808,VALID,20.3424,VALID,355,VALID,0.000363372,
2006-03-20, 01:29:01,VALID,915.919,VALID,0,VALID,100,VALID,-0.0169808,VALID,19.5904,VALID,355,VALID,0.120793,
2006-03-20, 01:30:01,VALID,915.909,VALID,0,VALID,100,VALID,0,VALID,19.6731,VALID,355,VALID,0.0661058,
2006-03-20, 01:31:00,VALID,915.897,VALID,0,VALID,100,VALID,0,VALID,18.6371,VALID,355,VALID,0,
2006-03-20, 01:32:01,VALID,915.878,VALID,0,VALID,100,VALID,-0.0169808,VALID,19.5781,VALID,355,VALID,0,
2006-03-20, 01:33:00,VALID,915.854,VALID,0,VALID,100,VALID,-0.101885,VALID,18.4773,VALID,355,VALID,0,
2006-03-20, 01:34:00,VALID,915.815,VALID,0,VALID,100,VALID,-0.0679233,VALID,20.0245,VALID,355,VALID,0,
2006-03-20, 01:35:01,VALID,915.779,VALID,0,VALID,100,VALID,0.0169808,VALID,20.5754,VALID,355,VALID,0,
2006-03-20, 01:36:00,VALID,915.75,VALID,0,VALID,100,VALID,0,VALID,19.5663,VALID,355,VALID,0,
2006-03-20, 01:37:01,VALID,915.708,VALID,0,VALID,100,VALID,0.0169808,VALID,19.0373,VALID,355,VALID,0.130022,
2006-03-20, 01:38:00,VALID,915.692,VALID,0,VALID,100,VALID,0,VALID,19.6064,VALID,355,VALID,0.0680043,
2006-03-20, 01:39:00,VALID,915.677,VALID,0,VALID,100,VALID,0.0169808,VALID,19.5516,VALID,355,VALID,0.293605,
2006-03-20, 01:40:00,VALID,915.673,VALID,0,VALID,100,VALID,0,VALID,19.366,VALID,355,VALID,0.0573552,
2006-03-20, 01:41:00,VALID,915.678,VALID,0,VALID,100,VALID,0,VALID,19.3106,VALID,355,VALID,0,
2006-03-20, 01:42:01,VALID,915.674,VALID,0,VALID,100,VALID,0.0169808,VALID,19.3622,VALID,355,VALID,0,
2006-03-20, 01:43:01,VALID,915.668,VALID,0,VALID,100,VALID,0.0169808,VALID,19.3472,VALID,355,VALID,0.110102,
2006-03-20, 01:44:00,VALID,915.672,VALID,0,VALID,100,VALID,0.0169808,VALID,19.3921,VALID,355,VALID,0.155878,
2006-03-20, 01:45:00,VALID,915.667,VALID,0,VALID,100,VALID,0.0169808,VALID,19.2566,VALID,355,VALID,0.129278,
2006-03-20, 01:46:00,VALID,915.648,VALID,0,VALID,100,VALID,0.0169808,VALID,20.2339,VALID,355,VALID,0.00422297,
2006-03-20, 01:47:01,VALID,915.609,VALID,0,VALID,100,VALID,0,VALID,18.9321,VALID,355,VALID,0.0424361,
2006-03-20, 01:48:01,VALID,915.608,VALID,0,VALID,100,VALID,0,VALID,19.1087,VALID,355,VALID,0.231707,
2006-03-20, 01:49:01,VALID,915.586,VALID,0,VALID,100,VALID,0.0339617,VALID,19.3798,VALID,355,VALID,0.326367,
2006-03-20, 01:50:00,VALID,915.566,VALID,0,VALID,100,VALID,0.0339617,VALID,18.9591,VALID,355,VALID,0.504906,
2006-03-20, 01:51:00,VALID,915.557,VALID,0,VALID,100,VALID,0.0679233,VALID,19.5944,VALID,5,VALID,0.710392,
2006-03-20, 01:52:00,VALID,915.536,VALID,0,VALID,100,VALID,0.0339617,VALID,19.9001,VALID,14,VALID,0.822731,
2006-03-20, 01:53:01,VALID,915.53,VALID,0,VALID,100,VALID,0.0339617,VALID,20.206,VALID,27,VALID,0.607469,
2006-03-20, 01:54:01,VALID,915.528,VALID,0,VALID,100,VALID,-0.0849042,VALID,18.6874,VALID,28,VALID,0.406055,
2006-03-20, 01:55:01,VALID,915.526,VALID,0,VALID,100,VALID,-0.0679233,VALID,19.4648,VALID,28,VALID,0.0375744,
2006-03-20, 01:56:01,VALID,915.524,VALID,0,VALID,100,VALID,-0.0679233,VALID,18.7398,VALID,28,VALID,0.0266768,
2006-03-20, 01:57:01,VALID,915.519,VALID,0,VALID,100,VALID,-0.0679233,VALID,18.5088,VALID,28,VALID,0.0915698,
2006-03-20, 01:58:01,VALID,915.519,VALID,0,VALID,100,VALID,-0.0509425,VALID,19.5882,VALID,28,VALID,0.223336,
2006-03-20, 01:59:01,VALID,915.519,VALID,0,VALID,100,VALID,-0.0509425,VALID,19.6236,VALID,28,VALID,0.227121,
2006-03-20, 02:00:01,VALID,915.516,VALID,0,VALID,100,VALID,0.0509425,VALID,19.3653,VALID,28,VALID,0.163881,
2006-03-20, 02:01:01,VALID,915.526,VALID,0,VALID,100,VALID,0.0339617,VALID,18.7788,VALID,28,VALID,0.220881,
2006-03-20, 02:02:00,VALID,915.529,VALID,0,VALID,100,VALID,0.0339617,VALID,19.4454,VALID,28,VALID,0.0163872,
2006-03-20, 02:03:00,VALID,915.519,VALID,0,VALID,100,VALID,-0.0509425,VALID,19.3666,VALID,28,VALID,0,
2006-03-20, 02:04:00,VALID,915.528,VALID,0,VALID,100,VALID,0.0509425,VALID,20.0954,VALID,28,VALID,0,
2006-03-20, 02:05:01,VALID,915.519,VALID,0,VALID,100,VALID,0.0679233,VALID,19.8696,VALID,28,VALID,0,
2006-03-20, 02:06:01,VALID,915.522,VALID,0,VALID,100,VALID,0.0509425,VALID,19.6671,VALID,28,VALID,0,
2006-03-20, 02:07:00,VALID,915.519,VALID,0,VALID,100,VALID,0.0679233,VALID,19.2386,VALID,28,VALID,0,
2006-03-20, 02:08:01,VALID,915.528,VALID,0,VALID,100,VALID,0.0339617,VALID,19.6465,VALID,28,VALID,0,
2006-03-20, 02:09:00,VALID,915.552,VALID,0,VALID,100,VALID,0.0509425,VALID,19.2076,VALID,28,VALID,0,
2006-03-20, 02:10:00,VALID,915.558,VALID,0,VALID,100,VALID,0.0339617,VALID,20.1271,VALID,28,VALID,0.0863186,
2006-03-20, 02:11:00,VALID,915.57,VALID,0,VALID,100,VALID,0.0509425,VALID,19.4659,VALID,28,VALID,0.139382,
2006-03-20, 02:12:01,VALID,915.573,VALID,0,VALID,100,VALID,0.0169808,VALID,19.4827,VALID,28,VALID,0.214571,
2006-03-20, 02:13:01,VALID,915.582,VALID,0,VALID,100,VALID,-0.0339617,VALID,19.5562,VALID,28,VALID,0.0219494,
2006-03-20, 02:14:01,VALID,915.58,VALID,0,VALID,100,VALID,-0.0169808,VALID,19.1202,VALID,28,VALID,0.197409,
2006-03-20, 02:15:01,VALID,915.592,VALID,0,VALID,100,VALID,-0.0339617,VALID,19.1422,VALID,28,VALID,0.156432,
2006-03-20, 02:16:01,VALID,915.599,VALID,0,VALID,100,VALID,-0.0679233,VALID,19.4466,VALID,28,VALID,0.0337271,
2006-03-20, 02:17:01,VALID,915.6,VALID,0,VALID,100,VALID,-0.0509425,VALID,19.477,VALID,28,VALID,0.179155,
2006-03-20, 02:18:01,VALID,915.602,VALID,0,VALID,100,VALID,0.0339617,VALID,18.9388,VALID,28,VALID,0.0919922,
2006-03-20, 02:19:01,VALID,915.604,VALID,0,VALID,100,VALID,0.0509425,VALID,19.4867,VALID,28,VALID,0.0594512,
2006-03-20, 02:20:01,VALID,915.61,VALID,0,VALID,100,VALID,-0.0679233,VALID,19.2127,VALID,28,VALID,0.0420387,
2006-03-20, 02:21:01,VALID,915.616,VALID,0,VALID,100,VALID,-0.0509425,VALID,19.554,VALID,28,VALID,0,
2006-03-20, 02:22:01,VALID,915.625,VALID,0,VALID,100,VALID,-0.0339617,VALID,19.2739,VALID,28,VALID,0,
2006-03-20, 02:23:01,VALID,915.634,VALID,0,VALID,100,VALID,-0.0509425,VALID,19.53,VALID,28,VALID,0,
2006-03-20, 02:24:01,VALID,915.627,VALID,0,VALID,100,VALID,-0.0509425,VALID,19.5529,VALID,28,VALID,0,
2006-03-20, 02:25:01,VALID,915.625,VALID,0,VALID,100,VALID,-0.0509425,VALID,19.36,VALID,28,VALID,0,
2006-03-20, 02:26:01,VALID,915.634,VALID,0,VALID,100,VALID,-0.0339617,VALID,19.3845,VALID,28,VALID,0.0487805,
2006-03-20, 02:27:01,VALID,915.62,VALID,0,VALID,100,VALID,-0.0169808,VALID,20.1274,VALID,28,VALID,0.113567,
2006-03-20, 02:28:01,VALID,915.616,VALID,0,VALID,100,VALID,-0.0169808,VALID,19.4735,VALID,2,VALID,0.282924,
2006-03-20, 02:29:01,VALID,915.611,VALID,0,VALID,100,VALID,-0.0509425,VALID,19.7505,VALID,355,VALID,0.0295759,
2006-03-20, 02:30:01,VALID,915.605,VALID,0,VALID,100,VALID,-0.101885,VALID,18.8185,VALID,331,VALID,0.287946,
2006-03-20, 02:31:01,VALID,915.59,VALID,0,VALID,100,VALID,-0.0509425,VALID,20.3346,VALID,260,VALID,0.337984,
2006-03-20, 02:32:01,VALID,915.585,VALID,0,VALID,100,VALID,0.0509425,VALID,19.8158,VALID,234,VALID,0.349888,
2006-03-20, 02:33:01,VALID,915.577,VALID,0,VALID,100,VALID,-0.0339617,VALID,19.32,VALID,219,VALID,0.451265,
2006-03-20, 02:34:01,VALID,915.574,VALID,0,VALID,100,VALID,-0.0339617,VALID,19.3902,VALID,213,VALID,0.388445,
2006-03-20, 02:35:01,VALID,915.573,VALID,0,VALID,100,VALID,-0.0169808,VALID,19.267,VALID,205,VALID,0.708031,
2006-03-20, 02:36:01,VALID,915.563,VALID,0,VALID,100,VALID,-0.0509425,VALID,19.3027,VALID,206,VALID,0.847049,
2006-03-20, 02:37:01,VALID,915.557,VALID,0,VALID,100,VALID,-0.0339617,VALID,19.5447,VALID,192,VALID,0.676525,
2006-03-20, 02:38:01,VALID,915.544,VALID,0,VALID,100,VALID,0,VALID,20.0295,VALID,193,VALID,0.519817,
2006-03-20, 02:39:01,VALID,915.529,VALID,0,VALID,100,VALID,0.0339617,VALID,19.3737,VALID,190,VALID,0.242365,
2006-03-20, 02:40:01,VALID,915.525,VALID,0,VALID,100,VALID,-0.0849042,VALID,19.8244,VALID,190,VALID,0.134718,
2006-03-20, 02:41:00,VALID,915.521,VALID,0,VALID,100,VALID,-0.101885,VALID,19.0389,VALID,190,VALID,0.332919,
2006-03-20, 02:42:00,VALID,915.497,VALID,0,VALID,100,VALID,-0.0169808,VALID,20.0303,VALID,227,VALID,0.574219,
2006-03-20, 02:43:00,VALID,915.482,VALID,0,VALID,100,VALID,-0.0509425,VALID,19.951,VALID,227,VALID,0.594322,
2006-03-20, 02:44:00,VALID,915.463,VALID,0,VALID,100,VALID,-0.0339617,VALID,19.5748,VALID,234,VALID,0.164773,
2006-03-20, 02:45:00,VALID,915.451,VALID,0,VALID,100,VALID,-0.0509425,VALID,19.9038,VALID,234,VALID,0.00571646,
2006-03-20, 02:46:00,VALID,915.445,VALID,0,VALID,100,VALID,-0.0169808,VALID,19.6155,VALID,234,VALID,0,
2006-03-20, 02:47:00,VALID,915.437,VALID,0,VALID,100,VALID,-0.0509425,VALID,19.505,VALID,242,VALID,0.242188,
2006-03-20, 02:48:00,VALID,915.428,VALID,0,VALID,100,VALID,-0.0339617,VALID,19.5432,VALID,301,VALID,0.492001,
2006-03-20, 02:49:00,VALID,915.422,VALID,0,VALID,100,VALID,-0.0169808,VALID,20.0356,VALID,358,VALID,0.666211,
2006-03-20, 02:50:00,VALID,915.416,VALID,0,VALID,100,VALID,-0.0849042,VALID,20.1257,VALID,16,VALID,0.854725,
2006-03-20, 02:51:00,VALID,915.415,VALID,0,VALID,100,VALID,-0.0339617,VALID,18.8074,VALID,16,VALID,0.794876,
2006-03-20, 02:52:00,VALID,915.42,VALID,0,VALID,100,VALID,-0.0509425,VALID,19.6837,VALID,17,VALID,0.670541,
2006-03-20, 02:53:00,VALID,915.409,VALID,0,VALID,100,VALID,-0.0339617,VALID,19.723,VALID,17,VALID,0.651989,
2006-03-20, 02:54:00,VALID,915.404,VALID,0,VALID,100,VALID,-0.0509425,VALID,19.3522,VALID,17,VALID,0.65625,
2006-03-20, 02:55:00,VALID,915.399,VALID,0,VALID,100,VALID,-0.0849042,VALID,19.7436,VALID,17,VALID,0.627778,
2006-03-20, 02:56:00,VALID,915.408,VALID,0,VALID,100,VALID,-0.0679233,VALID,19.6317,VALID,17,VALID,0.739757,
2006-03-20, 02:57:00,VALID,915.4,VALID,0,VALID,100,VALID,-0.0849042,VALID,18.9586,VALID,17,VALID,0.899414,
2006-03-20, 02:58:00,VALID,915.41,VALID,0,VALID,100,VALID,-0.0679233,VALID,19.0007,VALID,28,VALID,0.827398,
2006-03-20, 02:59:00,VALID,915.411,VALID,0,VALID,100,VALID,-0.0679233,VALID,18.9892,VALID,27,VALID,0.615057,
2006-03-20, 03:00:00,VALID,915.413,VALID,0,VALID,100,VALID,-0.0849042,VALID,19.8561,VALID,22,VALID,0.726376,
2006-03-20, 03:01:00,VALID,915.41,VALID,0,VALID,100,VALID,-0.0339617,VALID,20.3084,VALID,30,VALID,0.954985,
2006-03-20, 03:02:00,VALID,915.405,VALID,0,VALID,100,VALID,-0.0509425,VALID,19.0284,VALID,25,VALID,0.942951,
2006-03-20, 03:03:00,VALID,915.391,VALID,0,VALID,100,VALID,-0.0169808,VALID,19.2584,VALID,21,VALID,0.935976,
2006-03-20, 03:04:00,VALID,915.395,VALID,0,VALID,100,VALID,-0.0509425,VALID,19.3447,VALID,24,VALID,1.15998,
2006-03-20, 03:05:00,VALID,915.389,VALID,0,VALID,100,VALID,-0.0679233,VALID,19.0964,VALID,19,VALID,0.90625,
2006-03-20, 03:06:00,VALID,915.391,VALID,0,VALID,100,VALID,-0.0509425,VALID,20.0141,VALID,27,VALID,0.927871,
2006-03-20, 03:07:00,VALID,915.391,VALID,0,VALID,100,VALID,-0.0169808,VALID,19.5931,VALID,34,VALID,0.734561,
2006-03-20, 03:08:00,VALID,915.375,VALID,0,VALID,100,VALID,-0.0849042,VALID,19.4285,VALID,27,VALID,0.55451,
2006-03-20, 03:09:00,VALID,915.371,VALID,0,VALID,100,VALID,-0.0679233,VALID,19.9807,VALID,25,VALID,0.493304,
2006-03-20, 03:10:00,VALID,915.368,VALID,0,VALID,100,VALID,-0.0679233,VALID,19.2012,VALID,25,VALID,0.347917,
2006-03-20, 03:11:00,VALID,915.376,VALID,0,VALID,100,VALID,-0.0509425,VALID,18.8409,VALID,25,VALID,0.266016,
2006-03-20, 03:12:00,VALID,915.377,VALID,0,VALID,100,VALID,0.0169808,VALID,18.7922,VALID,25,VALID,0.129297,
2006-03-20, 03:13:00,VALID,915.375,VALID,0,VALID,100,VALID,0.0679233,VALID,19.1312,VALID,25,VALID,0.0704901,
2006-03-20, 03:14:00,VALID,915.392,VALID,0,VALID,100,VALID,0.0339617,VALID,18.7986,VALID,25,VALID,0,
2006-03-20, 03:15:00,VALID,915.388,VALID,0,VALID,100,VALID,0.0679233,VALID,18.9171,VALID,25,VALID,0,
2006-03-20, 03:16:00,VALID,915.395,VALID,0,VALID,100,VALID,0.101885,VALID,19.4318,VALID,25,VALID,0,
2006-03-20, 03:17:00,VALID,915.408,VALID,0,VALID,100,VALID,0.0849042,VALID,19.2088,VALID,25,VALID,0,
2006-03-20, 03:18:00,VALID,915.403,VALID,0,VALID,100,VALID,0.0849042,VALID,19.49,VALID,25,VALID,0,
2006-03-20, 03:19:00,VALID,915.401,VALID,0,VALID,100,VALID,0.0169808,VALID,19.3138,VALID,25,VALID,0.116146,
2006-03-20, 03:20:00,VALID,915.399,VALID,0,VALID,100,VALID,-0.0849042,VALID,19.1654,VALID,25,VALID,0.377604,
2006-03-20, 03:21:00,VALID,915.393,VALID,0,VALID,100,VALID,-0.101885,VALID,20.3014,VALID,25,VALID,0.355741,
2006-03-20, 03:22:00,VALID,915.385,VALID,0,VALID,100,VALID,-0.101885,VALID,19.3952,VALID,25,VALID,0.222747,
2006-03-20, 03:23:00,VALID,915.365,VALID,0,VALID,100,VALID,-0.0339617,VALID,19.2846,VALID,25,VALID,0.0515253,
2006-03-20, 03:24:00,VALID,915.354,VALID,0,VALID,100,VALID,-0.0509425,VALID,19.0662,VALID,25,VALID,0,
2006-03-20, 03:25:00,VALID,915.333,VALID,0,VALID,100,VALID,-0.0339617,VALID,19.0096,VALID,25,VALID,0,
2006-03-20, 03:26:00,VALID,915.307,VALID,0,VALID,100,VALID,-0.0849042,VALID,19.4215,VALID,25,VALID,0,
2006-03-20, 03:27:00,VALID,915.289,VALID,0,VALID,100,VALID,-0.0339617,VALID,19.5511,VALID,25,VALID,0,
2006-03-20, 03:28:00,VALID,915.278,VALID,0,VALID,100,VALID,0.0849042,VALID,19.5893,VALID,25,VALID,0,
2006-03-20, 03:29:00,VALID,915.284,VALID,0,VALID,100,VALID,0.0509425,VALID,19.0242,VALID,25,VALID,0,
2006-03-20, 03:30:00,VALID,915.284,VALID,0,VALID,100,VALID,0.0679233,VALID,19.3185,VALID,25,VALID,0,
2006-03-20, 03:31:00,VALID,915.278,VALID,0,VALID,100,VALID,0.0679233,VALID,18.9491,VALID,25,VALID,0,
2006-03-20, 03:32:00,VALID,915.281,VALID,0,VALID,100,VALID,0,VALID,19.2467,VALID,25,VALID,0,
2006-03-20, 03:33:00,VALID,915.275,VALID,0,VALID,100,VALID,-0.0509425,VALID,18.8491,VALID,25,VALID,0,
2006-03-20, 03:34:00,VALID,915.274,VALID,0,VALID,100,VALID,-0.0339617,VALID,19.387,VALID,25,VALID,0,
2006-03-20, 03:35:00,VALID,915.282,VALID,0,VALID,100,VALID,-0.0509425,VALID,18.9864,VALID,25,VALID,0,
2006-03-20, 03:36:00,VALID,915.267,VALID,0,VALID,100,VALID,-0.0679233,VALID,18.9609,VALID,24,VALID,0.219131,
2006-03-20, 03:37:00,VALID,915.256,VALID,0,VALID,100,VALID,-0.0169808,VALID,18.2858,VALID,24,VALID,0.271662,
2006-03-20, 03:38:00,VALID,915.256,VALID,0,VALID,100,VALID,-0.0339617,VALID,18.9171,VALID,24,VALID,0.267442,
2006-03-20, 03:39:00,VALID,915.254,VALID,0,VALID,100,VALID,-0.0679233,VALID,19.4334,VALID,21,VALID,0.202398,
2006-03-20, 03:40:00,VALID,915.27,VALID,0,VALID,100,VALID,-0.0509425,VALID,19.4123,VALID,3,VALID,0.407315,
2006-03-20, 03:41:00,VALID,915.273,VALID,0,VALID,100,VALID,-0.0679233,VALID,20.2806,VALID,317,VALID,0.324826,
2006-03-20, 03:42:00,VALID,915.277,VALID,0,VALID,100,VALID,-0.0679233,VALID,19.1626,VALID,252,VALID,0.586124,
2006-03-20, 03:43:00,VALID,915.299,VALID,0,VALID,100,VALID,-0.0679233,VALID,19.1061,VALID,243,VALID,0.467607,
2006-03-20, 03:44:00,VALID,915.302,VALID,0,VALID,100,VALID,-0.0509425,VALID,18.9597,VALID,237,VALID,0.530362,
2006-03-20, 03:45:00,VALID,915.292,VALID,0,VALID,100,VALID,-0.0509425,VALID,18.9346,VALID,237,VALID,0.271528,
2006-03-20, 03:46:00,VALID,915.298,VALID,0,VALID,100,VALID,0.0339617,VALID,18.6802,VALID,237,VALID,0.0442073,